User: anonymous   Login
Location: Unspecified
(0.0000°N, 0.0000°E)
Time: 23:51:41
(UTC+00:00)
Language:

RESURS DK-1 - Orbit

View from above orbital plane
View from above orbital plane
View from above satellite
View from above satellite

Ground track
Ground track

The orbit data is extracted from the following two-line orbital elements,

1 29228U 06021A   16119.88498661  .00000318  00000-0  31730-4 0  9990
2 29228  69.9374  71.9429 0007746 257.8188 102.2125 15.01874773545895
Epoch (UTC): 28 April 2016 21:14:22
Eccentricity: 0.0007746
inclination: 69.9374°
perigee height: 556 km
apogee height: 566 km
right ascension of ascending node: 71.9429°
argument of perigee: 257.8188°
revolutions per day: 15.01874773
mean anomaly at epoch: 102.2125°
orbit number at epoch: 54589

The dashed part of the orbit path shows where the satellite is in the earth's shadow,  

DLR